{"data":{"norad_id":59890,"intl_designator":"2024-100F","name":"STARLINK-31951","alt_names":[],"object_type":"PAYLOAD","status":"ACTIVE","operator":null,"country":"US","launch_date":"2024-05-28","launch_site_code":"AFETR","launch_vehicle":null,"mission":null,"orbit_class":"UNKNOWN","rcs_meters":null,"size_class":null,"mass_kg":null,"dimensions":null,"purposes":["comms"],"wikipedia_slug":null,"has_3d_model":false,"image_url":null,"decayed_at":null,"tle_current":{"epoch":"2026-09-21T21:03:49.083552Z","epoch_age_seconds":55504,"freshness":"FRESH","line1":"1 59890U 24100F   26264.87765143 -.00000016  00000+0  89708-5 0  9993","line2":"2 59890  43.0073  97.2231 0001931 268.7024  91.3607 15.27576707131061","mean_motion":15.27576707,"eccentricity":0.0001931,"inclination_deg":43.0073,"raan_deg":97.2231,"arg_perigee_deg":268.7024,"mean_anomaly_deg":91.3607,"bstar":8.9708e-6,"rev_number":13106,"period_min":94.26695192466,"perigee_km":481.73405954482,"apogee_km":484.38385342321,"semimajor_km":6861.195956484,"source":"CELESTRAK","updated_at":"2026-09-22T09:00:49.106265Z"}}}